Wind_Speed
59 60 60 59 60 61 59 54 49 47 45 44 43 41 39 37 35 32 30 27 24 22 20 18 16 15 13 12 11 10 9 9 9 9 8 8 7 7 6 6 5 5 4 4 3 2 2 1 1
59 61 61 61 62 62 59 54 50 46 46 45 44 43 40 38 35 33 30 28 26 24 22 19 17 16 15 13 12 11 11 10 10 9 9 9 8 8 7 7 6 5 5 4 4 3 3 2 1
60 61 62 63 64 62 57 53 49 47 47 47 46 45 42 39 35 33 31 29 27 25 23 21 19 17 16 14 13 12 12 11 11 10 10 10 9 9 8 7 7 6 6 5 5 4 3 3 2
59 61 63 64 65 60 55 52 50 49 49 49 47 46 43 40 37 35 32 30 28 26 25 23 21 19 17 16 14 13 13 12 12 12 11 11 10 10 9 8 8 7 7 6 5 5 4 4 3
58 61 63 64 63 59 56 53 52 52 51 49 49 47 44 41 38 36 34 32 30 28 26 24 22 20 19 17 16 15 14 13 13 13 13 12 12 11 10 9 8 8 7 7 6 5 5 4 4
58 61 62 63 61 57 56 54 54 54 53 51 50 48 46 43 40 38 36 34 32 29 27 25 23 21 20 18 17 16 15 14 14 14 14 13 13 12 11 10 9 9 8 7 7 6 6 6 5
58 59 60 60 59 58 56 55 56 55 54 53 51 51 48 45 42 39 37 35 33 31 28 26 24 22 21 20 18 18 17 16 15 15 15 14 14 13 12 12 10 10 9 8 8 7 7 6 6
56 58 58 58 59 57 55 56 56 57 56 56 54 52 50 47 44 40 38 36 35 32 30 28 26 24 22 21 20 19 18 17 16 16 16 16 15 15 14 13 12 11 10 9 9 8 8 7 7
55 57 58 57 58 56 54 56 58 58 57 57 55 52 50 48 45 42 39 36 35 33 31 29 27 26 24 22 21 21 19 18 18 18 17 17 17 16 15 15 13 12 11 11 10 10 9 9 9
54 55 54 56 57 57 55 56 58 58 58 57 56 54 52 50 47 43 40 37 35 33 32 31 29 27 25 24 23 22 21 20 20 19 19 18 18 17 16 16 15 14 13 12 12 11 11 11 11
52 52 53 55 56 58 56 56 57 57 57 55 54 54 53 51 48 45 41 40 38 36 35 33 30 28 27 25 24 24 23 22 21 20 20 20 19 19 18 17 16 15 15 14 14 13 13 13 12
48 50 52 54 56 57 57 55 56 57 56 55 53 53 53 52 49 47 44 41 39 38 36 34 32 30 28 27 25 25 24 23 23 22 21 21 21 20 19 19 18 17 16 16 15 15 15 15 14
45 48 50 53 56 57 57 55 55 55 54 54 52 53 53 52 50 48 46 44 42 40 38 35 33 32 30 28 27 26 26 25 24 23 23 23 22 22 21 20 20 19 18 18 18 17 17 17 17
44 45 47 51 55 56 56 56 57 56 54 54 53 52 53 53 51 50 49 46 43 41 39 36 35 34 32 31 29 28 27 26 25 25 24 24 24 23 23 22 22 21 21 21 20 20 20 20 20
43 44 44 48 53 54 55 56 56 56 56 55 53 52 52 53 54 51 50 47 45 43 41 39 38 36 35 34 32 30 28 27 26 26 25 25 25 25 25 25 24 24 23 23 23 23 22 22 22
42 44 44 45 50 53 54 55 55 55 57 56 55 53 53 52 53 52 50 49 47 45 44 43 41 39 37 36 34 32 31 29 28 27 27 27 26 26 27 27 27 26 26 26 26 26 25 25 25
38 41 43 45 46 51 54 55 56 56 55 56 55 55 53 53 52 52 52 51 49 48 46 45 43 41 40 38 37 35 33 31 30 29 29 28 28 28 28 29 29 29 29 29 29 28 28 28 28
35 38 40 43 44 46 50 53 54 54 55 54 54 55 54 53 52 52 51 51 50 49 48 46 45 44 43 42 40 39 36 34 33 32 31 31 30 30 31 31 31 31 31 31 31 31 31 30 30
29 34 36 41 44 45 47 51 53 54 54 54 54 54 54 52 51 52 52 50 50 50 49 47 47 45 44 44 42 41 38 36 35 34 34 34 33 33 32 33 33 33 33 33 33 33 33 33 33
26 29 33 37 41 42 46 49 53 55 54 54 52 52 53 52 51 51 51 52 51 50 49 49 48 47 44 44 43 42 41 39 38 37 36 35 35 35 35 35 35 35 36 36 36 36 36 37 37
23 26 29 34 38 40 43 47 50 52 53 53 51 50 51 50 49 50 51 52 52 51 50 48 48 48 46 45 45 44 43 42 41 40 39 38 37 37 37 37 37 37 37 37 37 37 37 38 39
20 23 25 30 33 37 42 46 49 50 51 52 51 49 49 49 48 49 50 51 51 52 52 51 50 49 49 47 46 45 45 43 42 41 41 40 40 40 40 40 40 39 39 39 39 39 39 39 39
18 20 22 26 29 31 36 40 44 48 49 50 50 49 48 48 47 47 48 49 50 50 51 52 51 50 50 48 47 47 47 45 45 44 44 44 43 43 42 42 42 41 41 42 42 42 41 41 41
17 18 18 21 25 28 31 35 37 41 44 46 48 48 47 47 48 48 48 49 50 50 50 51 51 51 50 49 48 48 47 46 46 46 46 46 46 45 45 45 44 44 44 43 43 43 43 43 43
15 17 17 19 22 25 28 32 33 33 39 43 45 46 46 47 47 46 46 47 49 49 49 50 51 51 51 50 49 49 48 48 48 48 48 47 47 47 46 46 46 46 46 46 46 46 45 46 46
14 16 18 19 21 21 25 28 30 30 33 38 42 44 44 45 46 47 46 47 47 48 49 49 49 50 50 51 51 50 49 49 49 49 49 49 49 49 48 48 48 48 48 49 49 48 48 47 47
13 15 17 19 21 21 24 26 27 27 29 33 38 41 43 44 44 45 45 46 46 47 48 49 49 49 50 50 51 51 51 51 50 50 50 50 50 50 49 49 49 49 49 49 49 49 49 50 49
14 15 16 18 20 21 22 24 26 27 27 30 34 37 39 41 42 43 43 44 45 46 46 48 49 49 49 49 49 49 50 50 50 51 50 50 50 50 50 50 50 49 49 50 50 50 50 51 51
13 14 16 17 19 19 20 22 24 26 28 29 31 35 37 39 40 42 43 43 44 44 45 46 47 48 49 49 50 50 50 50 50 50 50 51 51 51 50 50 51 51 51 51 51 51 51 51 50
13 14 16 18 19 20 20 20 21 24 26 29 31 33 35 37 39 41 41 41 42 44 44 45 45 46 47 48 48 49 49 49 48 48 48 49 49 49 49 50 50 50 50 50 50 50 50 50 50
Wind_Direction
217 217 218 218 218 219 218 215 212 210 209 207 209 212 213 216 216 217 216 214 214 215 215 216 217 217 217 218 220 220 222 225 228 230 231 232 232 237 245 253 261 267 271 277 284 284 281 281 282
217 216 216 217 218 218 217 214 212 210 210 208 209 211 212 213 214 216 216 215 214 214 216 216 217 217 217 219 220 221 222 224 227 228 229 231 232 237 242 249 254 260 265 270 272 270 267 266 261
215 215 216 216 218 217 215 213 211 209 209 208 208 210 210 212 213 214 213 213 213 214 216 218 218 218 218 219 220 221 223 224 226 227 228 231 232 235 241 247 250 254 258 262 265 263 261 260 262
213 214 215 217 217 215 213 211 209 208 208 208 209 210 210 211 212 213 213 214 214 215 217 218 219 219 219 220 220 222 223 224 226 227 229 231 232 235 239 244 248 249 252 257 259 259 259 261 264
212 214 215 216 215 212 210 209 208 208 208 208 209 209 210 210 210 211 211 214 215 216 217 218 219 220 220 220 221 223 224 225 226 228 230 231 232 235 238 241 244 246 249 251 253 255 258 260 261
210 212 214 215 213 210 209 208 208 209 208 208 209 208 209 208 210 211 211 212 215 215 217 219 220 220 220 221 222 224 226 226 227 228 230 230 232 235 237 239 242 246 248 249 251 252 254 256 258
209 211 213 213 211 209 207 207 209 209 208 209 209 209 209 209 209 210 211 211 213 214 217 219 221 221 221 222 223 225 227 227 228 229 229 231 232 234 237 239 242 246 248 249 250 252 255 256 261
207 210 212 211 209 208 207 208 209 209 209 210 210 211 211 212 213 213 213 212 214 216 218 220 221 222 223 225 226 226 227 228 228 229 230 231 233 235 238 240 243 246 248 250 251 253 255 259 265
207 209 210 209 208 206 206 209 210 210 210 211 211 211 212 213 214 215 213 213 215 217 220 222 223 224 225 226 228 228 228 229 230 231 232 233 235 237 240 242 244 247 249 252 254 255 258 262 268
206 207 207 208 208 207 207 208 209 211 211 211 212 212 212 213 214 215 215 217 219 221 222 223 224 225 226 227 229 231 231 231 232 233 234 235 237 239 241 243 245 247 249 252 256 258 261 265 270
205 206 206 207 206 206 207 207 208 211 212 212 213 214 215 215 216 216 218 217 220 222 224 225 225 226 227 229 231 232 234 234 234 235 237 238 239 241 242 244 246 248 251 253 257 261 264 268 272
205 204 206 207 207 208 208 207 208 210 212 212 213 214 216 217 218 218 219 217 218 220 222 224 227 229 230 231 232 234 235 235 236 237 239 241 242 243 245 246 248 250 252 255 258 263 266 270 274
204 203 206 207 208 208 208 207 207 208 210 212 213 214 214 216 218 218 219 219 219 221 223 224 227 230 231 233 234 234 235 237 238 239 241 243 244 246 247 248 250 252 255 258 260 263 267 271 275
205 204 206 206 208 209 210 208 208 209 210 212 212 213 216 216 217 218 220 220 219 221 224 226 228 231 233 234 235 236 237 238 240 241 244 246 247 249 250 251 253 255 258 261 263 265 268 272 276
207 206 206 206 207 208 210 209 207 209 211 212 212 213 215 217 218 218 220 222 221 221 224 226 228 230 232 233 235 237 238 240 241 243 245 248 249 251 253 254 256 258 260 262 265 267 270 273 276
209 209 208 206 207 209 210 209 208 209 211 212 213 214 214 216 218 219 221 222 222 223 224 226 227 229 231 233 236 238 240 241 244 246 248 249 251 253 255 256 258 260 262 264 265 267 270 273 276
211 210 210 207 207 209 211 209 210 211 212 213 213 215 216 217 219 221 221 221 222 224 226 227 228 231 232 235 237 239 240 242 245 248 250 252 253 255 257 258 260 262 264 265 267 269 271 273 276
211 211 210 208 209 211 211 209 210 211 214 214 215 216 218 219 221 223 224 224 225 225 226 228 230 232 233 234 237 239 241 244 247 250 252 254 255 257 259 261 262 264 266 268 269 270 272 275 277
210 213 214 212 213 214 212 212 212 212 214 216 216 218 219 219 221 223 224 225 227 227 228 229 232 234 235 236 237 240 243 246 249 252 253 254 256 258 260 262 264 265 268 270 271 273 274 275 277
214 214 214 214 214 216 216 215 214 213 213 215 215 216 219 220 221 222 223 226 228 229 230 231 234 236 238 238 240 241 244 246 249 252 254 256 257 258 261 264 266 268 270 270 271 273 274 276 277
214 216 217 219 219 218 218 217 215 214 215 215 215 217 217 219 221 223 224 227 229 230 231 232 234 236 238 240 241 242 245 246 249 252 254 256 258 260 262 263 266 269 270 271 272 274 275 276 278
211 216 221 221 222 222 222 223 219 218 218 218 218 218 219 220 222 223 224 227 228 231 233 235 236 238 239 240 242 244 246 248 250 252 254 256 258 260 263 263 266 268 270 271 271 274 275 276 277
211 215 221 221 223 225 226 229 225 224 222 221 222 222 222 223 223 222 224 227 229 231 233 236 238 239 241 243 244 245 247 250 252 253 256 257 259 260 262 264 265 268 270 272 272 274 275 276 277
210 216 220 222 223 226 226 229 227 226 225 225 226 227 227 228 227 226 226 227 229 231 233 236 238 240 242 243 245 246 248 251 253 255 256 258 259 260 262 264 265 268 270 272 273 274 276 277 278
213 218 222 223 225 229 229 232 229 228 227 226 227 228 228 229 230 230 231 231 232 234 235 237 239 241 243 245 246 248 250 251 253 255 257 259 260 261 263 265 266 267 268 271 273 275 277 277 278
216 220 224 227 231 233 231 231 228 230 229 229 229 229 229 230 231 232 233 234 233 234 235 237 240 242 244 246 247 248 249 251 253 255 257 259 260 262 263 265 267 268 270 272 275 276 277 277 279
217 222 227 230 233 235 233 230 226 228 229 230 229 229 230 231 231 232 232 234 234 235 236 237 239 241 243 246 248 249 250 251 253 255 257 259 260 261 263 265 267 270 271 273 275 276 276 278 280
223 225 230 231 234 236 235 234 232 231 231 232 231 229 229 230 231 232 233 234 236 237 238 239 240 242 243 245 247 248 250 252 253 255 257 259 260 262 264 266 269 270 271 273 275 276 277 279 280
231 233 236 238 238 240 238 236 236 236 234 233 231 229 229 230 230 232 232 234 235 237 239 240 240 242 243 245 247 249 251 253 254 255 257 260 262 264 265 267 269 270 271 273 274 277 279 279 280
246 246 245 244 245 246 245 243 239 238 237 235 232 230 228 229 230 230 231 232 234 236 238 240 241 243 244 246 248 250 251 253 255 256 258 260 262 263 266 267 268 270 271 273 274 275 277 277 278
Height
5755 5761 5768 5775 5780 5784 5794 5807 5816 5823 5828 5833 5837 5842 5846 5851 5857 5863 5865 5867 5870 5873 5876 5878 5880 5883 5884 5886 5887 5889 5890 5891 5892 5893 5894 5894 5895 5895 5895 5895 5895 5895 5895 5895 5894 5894 5894 5893 5893
5744 5751 5758 5764 5769 5777 5789 5802 5811 5818 5824 5828 5832 5836 5841 5846 5852 5857 5860 5864 5867 5871 5873 5876 5878 5880 5882 5884 5886 5887 5889 5890 5891 5892 5893 5893 5894 5894 5894 5895 5895 5894 5894 5894 5894 5894 5893 5893 5892
5733 5741 5748 5753 5759 5771 5787 5798 5807 5812 5816 5821 5825 5831 5837 5843 5848 5853 5857 5861 5864 5868 5871 5873 5876 5878 5880 5882 5884 5886 5887 5888 5889 5890 5891 5892 5893 5893 5894 5894 5894 5894 5894 5893 5893 5893 5893 5892 5892
5723 5732 5738 5744 5753 5769 5783 5793 5800 5804 5808 5814 5819 5826 5832 5839 5844 5849 5853 5857 5861 5864 5867 5870 5873 5875 5878 5880 5882 5884 5885 5887 5888 5889 5890 5891 5891 5892 5892 5893 5893 5893 5893 5892 5892 5892 5892 5892 5891
5713 5721 5728 5735 5748 5763 5775 5784 5790 5795 5801 5807 5813 5820 5827 5834 5839 5844 5848 5853 5857 5861 5864 5867 5870 5873 5875 5878 5880 5882 5883 5885 5886 5887 5888 5889 5890 5891 5891 5891 5891 5891 5891 5891 5891 5891 5891 5891 5890
5704 5711 5720 5729 5744 5758 5768 5775 5781 5788 5794 5801 5807 5815 5822 5829 5834 5839 5844 5848 5853 5857 5860 5864 5867 5870 5872 5875 5877 5879 5881 5883 5884 5885 5887 5887 5888 5889 5889 5890 5890 5890 5890 5890 5890 5890 5890 5890 5889
5696 5704 5714 5727 5739 5750 5760 5767 5774 5781 5788 5795 5801 5809 5816 5823 5829 5834 5839 5843 5848 5852 5857 5860 5864 5867 5869 5872 5874 5877 5879 5880 5882 5883 5884 5885 5886 5887 5888 5888 5888 5889 5889 5889 5889 5889 5888 5888 5888
5689 5699 5708 5719 5731 5743 5753 5758 5766 5773 5781 5788 5795 5804 5811 5819 5824 5829 5833 5838 5843 5848 5852 5856 5860 5863 5866 5869 5872 5874 5876 5878 5879 5881 5882 5883 5884 5885 5886 5886 5887 5887 5887 5887 5887 5887 5887 5886 5886
5683 5693 5702 5714 5725 5737 5744 5750 5757 5764 5773 5781 5790 5799 5806 5813 5819 5824 5828 5833 5839 5844 5848 5852 5856 5860 5863 5866 5868 5871 5873 5875 5877 5878 5879 5881 5882 5883 5883 5884 5885 5885 5885 5885 5885 5885 5885 5884 5884
5677 5686 5698 5709 5719 5728 5734 5741 5750 5758 5766 5775 5784 5793 5799 5806 5813 5819 5824 5829 5835 5840 5844 5849 5852 5856 5859 5862 5865 5868 5870 5872 5874 5875 5876 5878 5879 5880 5881 5882 5882 5883 5883 5883 5883 5883 5883 5882 5882
5672 5682 5693 5700 5710 5719 5725 5733 5742 5751 5761 5771 5780 5788 5794 5801 5808 5814 5819 5824 5830 5835 5840 5844 5848 5852 5855 5859 5861 5864 5866 5868 5870 5872 5873 5875 5876 5877 5878 5879 5879 5880 5880 5880 5880 5880 5880 5880 5879
5668 5677 5685 5694 5702 5711 5718 5727 5736 5745 5755 5765 5773 5781 5788 5795 5802 5809 5815 5819 5824 5829 5834 5839 5843 5848 5851 5854 5857 5860 5863 5865 5867 5869 5870 5871 5873 5874 5875 5876 5876 5877 5877 5877 5877 5877 5877 5877 5876
5664 5672 5679 5687 5695 5703 5712 5721 5731 5740 5750 5758 5766 5774 5782 5788 5795 5802 5808 5813 5819 5824 5829 5834 5838 5842 5846 5850 5853 5856 5858 5861 5863 5865 5866 5868 5869 5870 5871 5872 5873 5873 5874 5874 5874 5874 5874 5873 5873
5660 5667 5674 5682 5690 5698 5706 5716 5726 5735 5743 5752 5760 5768 5775 5782 5789 5795 5801 5807 5813 5819 5824 5828 5833 5837 5841 5845 5848 5851 5854 5856 5858 5860 5862 5864 5865 5866 5867 5868 5869 5869 5870 5870 5870 5870 5870 5870 5869
5655 5662 5669 5676 5684 5693 5701 5710 5720 5730 5737 5745 5753 5760 5767 5775 5781 5788 5795 5801 5807 5813 5818 5823 5827 5831 5835 5839 5842 5845 5848 5851 5854 5856 5857 5859 5861 5862 5863 5864 5865 5865 5865 5866 5866 5866 5866 5865 5865
5652 5658 5665 5672 5679 5687 5696 5705 5715 5722 5729 5737 5746 5753 5760 5767 5774 5781 5788 5794 5800 5806 5811 5816 5821 5825 5829 5833 5837 5840 5843 5846 5848 5850 5852 5854 5856 5857 5858 5859 5860 5860 5861 5861 5861 5861 5861 5860 5860
5647 5654 5660 5668 5674 5681 5690 5699 5707 5714 5722 5731 5739 5746 5753 5760 5768 5774 5781 5787 5793 5799 5804 5809 5814 5819 5823 5827 5830 5834 5837 5840 5842 5845 5847 5849 5850 5851 5852 5853 5854 5855 5855 5855 5855 5855 5855 5855 5854
5646 5651 5657 5664 5670 5676 5684 5693 5701 5708 5715 5723 5731 5739 5746 5754 5761 5768 5774 5780 5786 5792 5797 5802 5807 5811 5815 5819 5823 5827 5831 5834 5836 5838 5841 5842 5844 5845 5846 5847 5848 5849 5849 5849 5849 5849 5849 5848 5848
5643 5649 5654 5660 5666 5672 5679 5686 5694 5701 5708 5716 5724 5731 5739 5747 5753 5759 5766 5772 5779 5785 5790 5795 5799 5803 5807 5812 5816 5820 5824 5827 5829 5832 5834 5835 5837 5838 5839 5840 5841 5842 5842 5842 5842 5842 5842 5841 5841
5641 5645 5651 5656 5662 5668 5675 5681 5687 5694 5702 5710 5717 5724 5732 5739 5745 5752 5758 5765 5772 5778 5783 5788 5792 5796 5800 5805 5809 5813 5816 5819 5822 5824 5826 5828 5830 5831 5832 5833 5834 5835 5835 5835 5835 5835 5834 5834 5833
5640 5644 5648 5653 5658 5663 5669 5675 5681 5689 5696 5703 5710 5717 5724 5731 5738 5745 5751 5758 5764 5770 5776 5780 5785 5789 5793 5797 5801 5804 5807 5810 5814 5817 5819 5820 5822 5823 5825 5825 5826 5827 5827 5827 5827 5826 5826 5826 5825
5640 5643 5646 5651 5655 5660 5665 5670 5677 5683 5689 5697 5704 5711 5718 5725 5731 5737 5744 5750 5756 5762 5767 5772 5777 5781 5785 5789 5792 5795 5799 5802 5806 5808 5810 5812 5813 5815 5816 5817 5817 5818 5818 5818 5818 5818 5818 5817 5816
5638 5641 5645 5648 5652 5656 5660 5665 5672 5677 5684 5692 5699 5705 5711 5718 5724 5730 5736 5742 5748 5754 5759 5764 5768 5773 5777 5781 5784 5787 5790 5794 5796 5798 5801 5802 5804 5805 5807 5807 5808 5809 5809 5809 5809 5809 5809 5808 5807
5636 5640 5643 5645 5648 5653 5657 5660 5667 5672 5680 5687 5692 5698 5704 5710 5716 5722 5727 5733 5739 5745 5750 5755 5759 5764 5768 5771 5775 5778 5781 5784 5787 5789 5791 5793 5795 5796 5797 5798 5798 5799 5800 5800 5800 5799 5799 5798 5798
5635 5639 5641 5643 5645 5649 5652 5655 5663 5668 5673 5678 5684 5690 5696 5702 5707 5714 5719 5725 5730 5736 5741 5745 5750 5754 5758 5762 5765 5769 5772 5775 5777 5780 5782 5783 5785 5786 5788 5788 5789 5790 5790 5790 5790 5789 5789 5788 5788
5634 5637 5639 5641 5642 5645 5647 5651 5659 5662 5666 5671 5676 5682 5687 5693 5699 5705 5711 5716 5721 5726 5731 5736 5740 5744 5748 5752 5756 5759 5762 5765 5767 5769 5771 5773 5775 5776 5777 5778 5778 5779 5779 5780 5779 5779 5779 5778 5777
5632 5634 5636 5638 5639 5641 5643 5648 5653 5656 5659 5663 5668 5674 5679 5685 5691 5697 5703 5708 5712 5717 5722 5726 5731 5735 5738 5742 5745 5748 5751 5754 5757 5759 5761 5762 5764 5765 5766 5767 5767 5768 5768 5769 5768 5768 5768 5767 5766
5631 5632 5634 5634 5635 5637 5640 5643 5647 5651 5654 5657 5662 5666 5672 5677 5683 5689 5694 5699 5703 5708 5712 5717 5721 5725 5728 5732 5735 5738 5741 5744 5746 5748 5750 5752 5753 5754 5755 5756 5756 5757 5757 5757 5757 5757 5756 5755 5754
5629 5630 5630 5631 5632 5634 5635 5641 5642 5645 5648 5651 5655 5659 5664 5669 5674 5680 5685 5689 5694 5698 5703 5707 5711 5715 5718 5721 5724 5727 5730 5733 5735 5737 5739 5741 5742 5743 5744 5745 5745 5745 5746 5746 5745 5745 5744 5743 5742
5626 5627 5627 5628 5628 5629 5631 5637 5637 5639 5641 5644 5648 5652 5656 5661 5666 5671 5676 5680 5685 5689 5693 5698 5701 5705 5708 5711 5714 5717 5719 5722 5724 5726 5728 5729 5731 5732 5732 5733 5733 5733 5734 5734 5733 5733 5732 5731 5730